Location: Newark
(47.5333°N, 8.7000°E)
Time: 18:12:53
(UTC+00:00)

BEESAT 3 - Pass Details

Date: 29 November 2020
Orbit: 491 x 509 km, 64.9° (Epoch: 14 January)

Event Time Altitude Azimuth Distance (km) Brightness Sun altitude
Exits shadow 04:45:06 22° 358° (N) 1,152 ? -20.4°
Drops below altitude 10° 04:47:01 10° 21° (NNE) 1,738 ? -20.1°
Sets 04:49:24 0° 32° (NNE) 2,626 ? -19.7°
